Location: Erlenbrunn
(49.1717°N, 7.6142°E)
Time: 14:06:48
(UTC+00:00)

Cosmos 2298 Rocket - Visible Passes

Search period start: 20 April 2021 00:00
Search period end: 30 April 2021 00:00
Orbit: 776 x 783 km, 74.0° (Epoch: 19 April)

Date Brightness Start Highest point End Pass type
(mag) Time Alt. Az. Time Alt. Az. Time Alt. Az.
20 Apr 6.2 02:18:36 10° SE 02:22:35 22° E 02:26:33 10° NE visible
21 Apr 6.5 01:46:35 10° SE 01:49:20 14° E 01:52:05 10° ENE visible
21 Apr 4.1 03:25:32 10° SSW 03:30:51 90° WNW 03:36:12 10° NNE visible
22 Apr 4.5 02:52:08 10° S 02:57:21 62° ESE 03:02:36 10° NNE visible
23 Apr 5.1 02:19:33 13° S 02:23:55 41° ESE 02:28:53 10° NE visible
24 Apr 5.7 01:46:54 13° SSE 01:50:34 27° E 01:55:00 10° NE visible
24 Apr 4.4 03:27:29 10° SW 03:32:37 50° WNW 03:37:48 10° NNE visible
25 Apr 6.2 01:14:13 12° SE 01:17:18 18° E 01:20:50 10° NE visible
25 Apr 4.1 02:54:44 16° SSW 02:59:00 73° WNW 03:04:19 10° NNE visible
26 Apr 6.5 00:42:16 10° ESE 00:44:05 12° E 00:45:56 10° ENE visible
26 Apr 4.1 02:22:00 22° SSW 02:25:28 77° ESE 02:30:47 10° NNE visible
27 Apr 4.6 01:49:13 26° S 01:51:59 52° ESE 01:57:08 10° NNE visible
27 Apr 5.2 03:30:01 10° WSW 03:34:35 29° NW 03:39:12 10° N visible
28 Apr 5.2 01:16:25 25° SE 01:18:36 34° ESE 01:23:21 10° NE visible
28 Apr 4.7 02:56:56 16° WSW 03:00:50 40° WNW 03:05:51 10° NNE visible
29 Apr 5.7 00:43:34 20° SE 00:45:16 23° E 00:49:22 10° NE visible
29 Apr 4.2 02:24:05 24° SW 02:27:11 58° WNW 02:32:26 10° NNE visible
